Погода в Паранагуа

Бразилия     25°32′34″S   48°32′26″W
темп.,
°C
ветер,
м/с
пор.,
м/с
влажн.,
%
обл.,
%
осадки,
мм/ч
давл.,
гПа
погр.,
м
8 декабря, ср
ср800:00+18ююв269593 3.2 1018271
03:00+17ююв2593100 6.1 1016228
06:00+17ююз239498 1.3 1018176
09:00+19ююз258518 1.9 1019651
12:00+24юв335282 0.3 10181669
15:00+23юв345765 0.3 10171332
18:00+21юв35674 0.1 1016894
21:00+16ююз118630 0.1 1018153
9 декабря, чт
чт900:00+17зюз1282100 0.0 1018220
03:00+16зюз1187100 0.1 1016104
06:00+17зюз128417 0.1 101698
09:00+23ю23510 0.1 10171371
12:00+25вюв335218 0.0 10161534
15:00+24юв445818 0.0 10141325
18:00+20юв258810 0.3 1015275
21:00+18юв119499 0.8 1015102
10 декабря, пт
пт1000:00+19юв119470 1.0 1015107
03:00+18ю119599 1.8 1013107
06:00+18ююз129576 0.8 1014118
09:00+22ю117941 1.3 1015630
12:00+24в326187 0.1 10121138
15:00+25вюв436011 0.1 1009990
18:00+22вюв24730 0.0 1009691
21:00+18всв11892 0.0 101079
11 декабря, сб
сб1100:00+17сз119527 0.0 101055
03:00+16сз119752 0.0 100948
06:00+17зсз119669 0.0 101071
09:00+25св1262100 0.0 1009725
12:00+28вюв3353100 0.0 1006841
15:00+26вюв3465100 0.0 1005574
18:00+24вюв2479100 0.0 1005369
21:00+21вюв1190100 0.0 100760
12 декабря, вс
вс1200:00+20юз1197100 0.0 100738
03:00+20сз1198100 0.0 100741
06:00+20ссз1197100 0.0 100751
09:00+26всв1167100 0.0 1009743
12:00+29вюв325998 0.0 1007955
15:00+27вюв336533 0.0 1006732
18:00+24юв258699 0.1 1007394
21:00+23ююз2498100 0.6 1010137